Regional Weather Roundup
Issued by NWS

Home | Current Version | Previous Version | Text Only | Print | Product List | Glossary Off
Versions: 1 2 3 4 5 6 7 8 9 10 11 12 13 14 15 16 17 18 19 20 21 22 23 24 25 26 27 28 29 30 31 32 33 34 35 36 37 38 39 40 41 42 43 44 45 46 47 48 49 50

000
ASUS43 KMKX 180411
RWRWI

WISCONSIN REGIONAL WEATHER ROUNDUP
NATIONAL WEATHER SERVICE MILWAUKEE/SULLIVAN WI
1100 PM CDT FRI APR 17 2015

NOTE: "FAIR" INDICATES FEW OR NO CLOUDS BELOW 12,000 FEET WITH NO
SIGNIFICANT WEATHER AND/OR OBSTRUCTIONS TO VISIBILITY.

WIZ001-002-006>008-014>016-023>028-180500-
NORTHWEST WISCONSIN

CITY           SKY/WX    TMP DP  RH WIND       PRES   REMARKS
SUPERIOR ARPT  CLEAR     58  28  32 N3        30.03R
ASHLAND        CLEAR     53  23  31 W6        30.01R
HAYWARD        PTCLDY    47  31  53 CALM      30.03R
SIREN          PTCLDY    46  31  57 CALM      30.04S
CUMBERLAND     CLEAR     50  30  46 CALM      30.03S
RICE LAKE      CLEAR     47  40  77 CALM      30.04F
CHETEK         CLEAR     49  42  76 CALM      30.03S
LADYSMITH      CLEAR     55  31  39 NW3       30.04S
EAU CLAIRE     PTCLDY    52  31  44 CALM      30.02S
MENOMONIE      PTCLDY    54  38  55 CALM      30.03S
NEW RICHMOND   CLEAR     51  36  57 CALM      30.04S
OSCEOLA        CLEAR     47  37  68 CALM      30.06S
$$

WIZ003>005-009-010-017-018-180500-
NORTH CENTRAL WISCONSIN

CITY           SKY/WX    TMP DP  RH WIND       PRES   REMARKS
MANITOWISH WTR CLEAR     41  38  90 CALM      30.02R
ARBOR VITAE    PTCLDY    47  32  56 CALM      30.02R
WOODRUFF       PTCLDY    47  32  56 CALM      30.02R
RHINELANDER    CLEAR     52  27  38 NW3       30.02R
EAGLE RIVER    CLEAR     43  31  62 CALM      30.01S
LAND O LAKES   CLEAR     38  33  82 CALM      30.02R
PHILLIPS       PTCLDY    56  28  34 CALM      30.02R
TOMAHAWK       CLEAR     44  33  65 CALM      30.03R
MEDFORD        CLEAR     54  34  47 W5        30.02S
MERRILL        CLEAR     49  38  65 CALM      30.01R
$$

WIZ029-030-035-036-043>047-180500-
CENTRAL WISCONSIN

CITY           SKY/WX    TMP DP  RH WIND       PRES   REMARKS
WAUSAU         CLEAR     59  42  53 NW6       29.99R
MOSINEE        CLEAR     57  37  47 W6        30.02R
MARSHFIELD     CLEAR     56  40  55 NW7       30.02R
STEVENS POINT  CLEAR     53  43  68 W3        30.01S
WAUPACA        CLEAR     55  43  62 CALM      30.00R
WAUTOMA        PTCLDY    51  42  71 CALM      30.01R
WISC RAPIDS    CLEAR     54  41  61 CALM      30.02R
CAMP DOUGLAS   MOCLDY    50  48  95 W3        30.00S
$$

WIZ011>013-019>022-031-037>040-048>050-180500-
NORTHEAST WISCONSIN

CITY           SKY/WX    TMP DP  RH WIND       PRES   REMARKS
ANTIGO         CLEAR     56  39  54 NW5       30.01R
SHAWANO        CLEAR     58  43  57 SW3       29.98R
OCONTO         CLEAR     44  41  89 CALM      29.97R
STURGEON BAY   CLEAR     46  37  71 SW3       29.99S
GREEN BAY      CLEAR     55  44  66 CALM      29.98S
MANITOWOC      CLEAR     44  42  93 CALM      29.99S
APPLETON       CLEAR     57  43  58 SW3       29.99S
CLINTONVILLE   CLEAR     54  43  66 CALM      29.98S
OSHKOSH        PTCLDY    60  43  53 SW6       29.99S
$$

WIZ032>034-041-042-053>061-180500-
SOUTHWEST WISCONSIN

CITY           SKY/WX    TMP DP  RH WIND       PRES   REMARKS
LA CROSSE      MOCLDY    59  51  75 CALM      30.01R
SPARTA         MOCLDY    50  42  72 CALM      30.02S
VIROQUA        MOCLDY    62  42  47 CALM      30.02F
BOSCOBEL       PTCLDY    55  45  68 CALM      30.01S
PRAIRIE DU CHI PTCLDY    57  46  65 CALM      30.01S
PLATTEVILLE    PTCLDY    63  46  54 N3        30.01S
$$

WIZ056-057-062-063-064-067-068-180500-
SOUTH CENTRAL WISCONSIN

CITY           SKY/WX    TMP DP  RH WIND       PRES   REMARKS
REEDSBURG      MOCLDY    58  45  62 CALM      30.00S
BARABOO/DELLS  MOCLDY    56  42  59 CALM      30.00S
LONE ROCK      MOCLDY    53  45  74 E3        30.00F
MINERAL POINT  PTCLDY    68  41  37 CALM      30.02S
MADISON        PTCLDY    58  45  62 CALM      30.00S
MIDDLETON      PTCLDY    56  47  73 CALM      30.01S
WATERTOWN      PTCLDY    53  45  74 CALM      30.00S
MONROE         PTCLDY    70  45  40 W7        30.00F
JANESVILLE     PTCLDY    59  43  55 CALM      29.99F
$$

WIZ051-052-058>065-066-070>072-180500-
SOUTHEAST WISCONSIN

CITY           SKY/WX    TMP DP  RH WIND       PRES   REMARKS
MILWAUKEE      PTCLDY    51  40  65 S6        30.01S
WAUKESHA       CLEAR     54  41  62 CALM      30.01S
MILWAUKEE/TIMM PTCLDY    50  39  66 CALM      30.01S
RACINE         CLEAR     51  42  71 CALM      30.01F HAZE
BURLINGTON     CLEAR     48  43  83 CALM      30.00F
KENOSHA        CLEAR     49  43  80 S3        30.00F
FOND DU LAC    PTCLDY    56  41  57 CALM      30.00R
SHEBOYGAN      FAIR      51  40  65 SW6       29.99S
WEST BEND      PTCLDY    57  37  47 CALM      30.00S
JUNEAU         PTCLDY    56  43  61 CALM      30.02R
$$

LSZ147-162-180500-
LAKE SUPERIOR

STATION/POSITION TIME  TEMP    WIND        PRES    WAVE
                       AIR SEA DIR/SP/G            HT/PER
                 (UTC) (F)     (DEG/KT/KT) (MB)    (FT/S)
DEVILS ISLAND    0400   54     360/ 24/ 26 1017.2R
PORT WING        0320   50     290/  6/ 17 1016.3R
SAXON HARBOR     0340   47     190/  4/  7 1015.2R
$$

LMZ867-665-643>646-180500-
LAKE MICHIGAN

STATION/POSITION TIME  TEMP    WIND        PRES    WAVE
                       AIR SEA DIR/SP/G            HT/PER
                 (UTC) (F)     (DEG/KT/KT) (MB)    (FT/S)
CHAMBERS ISLAND  0300   44      CALM  /  2 1015.2S
NORTHPORT PIER   0300   46      CALM  /  4 1015.2F
SISTER BAY       0332   47     150/  5/  8   N/A
KEWAUNEE LAKESHO 0300   46     170/  7/  7 1014.4F
SHEBOYGAN LAKESH 0400   55     220/  6/  7 1016.0F
PORT WASHINGTON  0300   47      CALM  /  2 1016.6
MILWAUKEE LAKESH 0300   43      40/  4/  5   N/A
KENOSHA   LAKESH 0400   49     190/  2/  2 1015.9F
$$

TC  - TEMPERATURE IN CELSIUS
VSB - VISIBILITY IN STATUTE MILES
WCI - WIND CHILL INDEX
HX  - HEAT INDEX




USA.gov is the U.S. government's official web portal to all federal, state and local government web resources and services.